Barrow, AK

11:23 PM AKDT on March 24, 2017 (GMT -0800)
Wiley Post-Will Rogers Memorial

Weather History for PABR - December, 2013

Change the Weather History Date:

Thursday, December 19, 2013

  Actual Average Record
Temperature  
Mean Temperature -20 °F -8 °F  
Max Temperature -14 °F -2 °F 29 °F (1921)
Min Temperature -25 °F -14 °F -43 °F (1978)
Degree Days  
Heating Degree Days 85 73  
Month to date heating degree days 1180 1358  
Since 1 July heating degree days 6543 7310  
Cooling Degree Days 0 0  
Month to date cooling degree days 0 0  
Year to date cooling degree days 0 0  
Moisture  
Dew Point -25 °F    
Average Humidity 0    
Maximum Humidity 0    
Minimum Humidity 0    
Precipitation  
Precipitation 0.00 in 0.01 in 0.20 in (1921)
Month to date precipitation 1.12 0.09  
Year to date precipitation 8.34 4.48  
Snow  
Snow 0.00 in 0.10 in 1.80 in (1921)
Month to date snowfall 12.7 2.3  
Since 1 July snowfall 36.6 22.6  
Snow Depth 8.00 in    
Sea Level Pressure  
Sea Level Pressure 30.16 in    
Wind  
Wind Speed 5 mph (SW)    
Max Wind Speed 10 mph    
Max Gust Speed 12 mph    
Visibility 2 miles    
Events Fog    
T = Trace of Precipitation, MM = Missing Value Source: NWS Daily Summary

Daily Weather History Graph

Daily Weather History Graph

Search for Another Location

Airport or City:

Trip Planner

Search our weather history database for the weather conditions in past years. The results will help you decide how hot, cold, wet, or windy it might be!

Date:

Astronomy

Dec. 31, 1969 Rise Set
Actual Time Sun does not rise Sun does not rise
Civil Twilight 11:54 AM AKST 2:54 PM AKST
Nautical Twilight 9:44 AM AKST 5:04 PM AKST
Astronomical Twilight 8:17 AM AKST 6:31 PM AKST
Moon 5:47 PM AKST (12/19) 1:10 PM AKST (12/19)
Length of Visible Light 2h 59m
Length of Day
0h 00m
Waning Gibbous, 95% of the Moon is Illuminated
Dec 19
Waning Gibbous
Dec 25
Last Quarter
Jan 1
New
Jan 7
First Quarter
Jan 15
Full

Hourly Weather History & Observations

Time (AKST) Temp. Windchill Dew Point Humidity Pressure Visibility Wind Dir Wind Speed Gust Speed Precip Events Conditions
12:03 AM -22.0 °F -39.4 °F -27.0 °F 77% 30.13 in 1.0 mi SSW 6.9 mph - N/A   Clear
12:16 AM -20.9 °F -38.1 °F -25.1 °F 81% 30.13 in 0.8 mi SSW 6.9 mph - N/A   Clear
12:26 AM -20.0 °F -37.1 °F -24.0 °F 82% 30.13 in 1.2 mi SSW 6.9 mph - N/A   Clear
12:53 AM -20.0 °F -38.6 °F -24.0 °F 82% 30.14 in 1.2 mi SSW 8.1 mph - N/A   Clear
1:06 AM -20.9 °F -38.1 °F -25.1 °F 81% 30.14 in 0.5 mi SSW 6.9 mph - N/A Fog Light Freezing Fog
1:39 AM -20.0 °F -30.7 °F -26.0 °F 74% 30.15 in 0.8 mi WSW 3.5 mph - N/A   Haze
1:53 AM -18.9 °F -32.0 °F -23.1 °F 81% 30.16 in 0.8 mi SW 4.6 mph - N/A   Clear
2:08 AM -20.9 °F -36.4 °F -25.1 °F 81% 30.15 in 1.0 mi SW 5.8 mph - N/A   Clear
2:14 AM -20.9 °F -36.4 °F -26.0 °F 77% 30.15 in 0.5 mi SSW 5.8 mph - N/A   Haze
2:53 AM -20.0 °F -33.3 °F -24.0 °F 82% 30.16 in 0.5 mi WSW 4.6 mph - N/A Fog Light Freezing Fog
3:00 AM -18.0 °F -33.0 °F -23.1 °F 78% 30.15 in 0.5 mi WSW 5.8 mph - N/A   Haze
3:10 AM -20.0 °F -33.3 °F -23.1 °F 86% 30.15 in 0.5 mi SW 4.6 mph - N/A Fog Light Freezing Fog
3:53 AM -18.9 °F -32.0 °F -25.1 °F 74% 30.16 in 0.5 mi WSW 4.6 mph - N/A Fog Light Freezing Fog
4:01 AM -18.0 °F -30.9 °F -24.0 °F 74% 30.15 in 0.8 mi WSW 4.6 mph - N/A Fog Light Freezing Fog
4:08 AM -17.0 °F -29.7 °F -20.9 °F 82% 30.16 in 0.5 mi SW 4.6 mph - N/A Fog Light Freezing Fog
4:18 AM -18.9 °F -29.5 °F -22.0 °F 86% 30.16 in 0.8 mi West 3.5 mph - N/A   Scattered Clouds
4:46 AM -20.0 °F - -23.1 °F 86% 30.15 in 0.8 mi Calm Calm - N/A   Clear
4:53 AM -18.9 °F -29.5 °F -23.1 °F 81% 30.16 in 0.8 mi West 3.5 mph - N/A   Clear
4:55 AM -18.9 °F - -23.1 °F 81% 30.15 in 1.0 mi Calm Calm - N/A   Mist
5:02 AM -17.0 °F - -23.1 °F 74% 30.15 in 1.0 mi Calm Calm - N/A   Clear
5:10 AM -17.0 °F - -22.0 °F 78% 30.15 in 0.8 mi Calm Calm - N/A   Clear
5:22 AM -20.0 °F - -24.0 °F 82% 30.15 in 0.5 mi Calm Calm - N/A   Clear
5:53 AM -20.0 °F -30.7 °F -24.0 °F 82% 30.16 in 0.5 mi SW 3.5 mph - N/A Fog Light Freezing Fog
6:00 AM -22.0 °F -37.7 °F -26.0 °F 82% 30.16 in 0.5 mi SSW 5.8 mph - N/A Fog Light Freezing Fog
6:53 AM -22.0 °F -37.7 °F -27.0 °F 77% 30.16 in 1.0 mi SW 5.8 mph - N/A   Clear
7:07 AM -24.0 °F -46.0 °F -27.9 °F 82% 30.16 in 0.8 mi SSW 10.4 mph - N/A   Clear
7:42 AM -22.0 °F -43.6 °F -26.0 °F 82% 30.16 in 2.0 mi SSW 10.4 mph - N/A   Clear
7:53 AM -23.1 °F -43.7 °F -29.0 °F 74% 30.17 in 1.0 mi SSW 9.2 mph - N/A   Clear
8:15 AM -23.1 °F -36.8 °F -27.9 °F 78% 30.16 in 2.0 mi SW 4.6 mph - N/A   Scattered Clouds
8:53 AM -24.0 °F -41.8 °F -27.9 °F 82% 30.17 in 2.0 mi SSW 6.9 mph - N/A   Scattered Clouds
9:21 AM -23.1 °F -43.7 °F -27.9 °F 78% 30.16 in 1.5 mi SSW 9.2 mph - N/A   Scattered Clouds
9:53 AM -22.0 °F -37.7 °F -26.0 °F 82% 30.18 in 1.2 mi SW 5.8 mph - N/A   Mostly Cloudy
10:00 AM -20.9 °F -31.7 °F -26.0 °F 77% 30.17 in 2.5 mi WSW 3.5 mph - N/A   Mostly Cloudy
10:34 AM -20.0 °F -33.3 °F -25.1 °F 78% 30.17 in 3.0 mi SW 4.6 mph - N/A   Scattered Clouds
10:53 AM -20.0 °F -35.3 °F -25.1 °F 78% 30.18 in 3.0 mi SSW 5.8 mph - N/A   Mostly Cloudy
11:41 AM -20.9 °F -36.4 °F -27.0 °F 73% 30.18 in 1.8 mi SW 5.8 mph - N/A   Scattered Clouds
11:53 AM -20.0 °F -35.3 °F -25.1 °F 78% 30.18 in 2.5 mi SSW 5.8 mph - N/A   Scattered Clouds
12:10 PM -18.9 °F -29.5 °F -24.0 °F 78% 30.17 in 3.0 mi WSW 3.5 mph - N/A   Scattered Clouds
12:44 PM -20.9 °F -34.3 °F -25.1 °F 81% 30.17 in 3.0 mi SW 4.6 mph - N/A   Mostly Cloudy
12:53 PM -20.0 °F -33.3 °F -26.0 °F 74% 30.18 in 9.0 mi SW 4.6 mph - N/A   Mostly Cloudy
1:53 PM -20.0 °F - -25.1 °F 78% 30.18 in 5.0 mi Calm Calm - N/A   Mostly Cloudy
2:19 PM -20.9 °F - -27.0 °F 73% 30.17 in 5.0 mi Calm Calm - N/A   Scattered Clouds
2:53 PM -17.0 °F - -23.1 °F 74% 30.18 in 3.0 mi Calm Calm - N/A   Mist
3:30 PM -17.0 °F - -22.0 °F 78% 30.16 in 1.5 mi Calm Calm - N/A   Mist
3:53 PM -18.9 °F - -23.1 °F 81% 30.17 in 2.0 mi Calm Calm - N/A   Scattered Clouds
4:19 PM -22.0 °F -37.7 °F -26.0 °F 82% 30.16 in 0.8 mi SSW 5.8 mph - N/A   Scattered Clouds
4:27 PM -24.0 °F -41.8 °F -27.9 °F 82% 30.16 in 1.2 mi SSW 6.9 mph - N/A   Scattered Clouds
4:53 PM -20.9 °F -34.3 °F -26.0 °F 77% 30.17 in 1.0 mi SSW 4.6 mph - N/A   Scattered Clouds
5:53 PM -24.0 °F -46.0 °F -29.0 °F 77% 30.17 in 1.0 mi SSW 10.4 mph - N/A   Scattered Clouds
6:53 PM -22.0 °F -33.0 °F -27.0 °F 77% 30.17 in 1.0 mi WSW 3.5 mph - N/A   Scattered Clouds
7:03 PM -20.9 °F -36.4 °F -27.0 °F 73% 30.16 in 2.0 mi SW 5.8 mph - 0.01 in   Scattered Clouds
7:19 PM -22.0 °F -35.6 °F -27.0 °F 77% 30.16 in 2.0 mi SSW 4.6 mph - N/A   Scattered Clouds
7:45 PM -23.1 °F -42.3 °F -27.0 °F 82% 30.16 in 1.8 mi SW 8.1 mph - N/A   Scattered Clouds
7:49 PM -22.0 °F -37.7 °F -27.4 °F 76% 30.16 in 3.0 mi SW 5.8 mph - N/A   Scattered Clouds
7:53 PM -22.0 °F -39.4 °F -26.0 °F 82% 30.17 in 3.0 mi SW 6.9 mph - N/A   Scattered Clouds
8:53 PM -20.0 °F -33.3 °F -25.1 °F 78% 30.16 in 10.0 mi WNW 4.6 mph - N/A   Scattered Clouds
9:53 PM -18.0 °F -30.9 °F -24.0 °F 74% 30.15 in 10.0 mi West 4.6 mph - N/A   Partly Cloudy
10:53 PM -18.0 °F -30.9 °F -24.0 °F 74% 30.14 in 10.0 mi WNW 4.6 mph - N/A   Partly Cloudy
11:53 PM -17.0 °F - -22.0 °F 78% 30.15 in 10.0 mi Calm Calm - N/A   Clear